www.pogodaiklimat.ru

Погода и климат >> Архив погоды >> Россия >> Краснодарский край >> Кропоткин


ПОГОДА в Кропоткине

  • Прогноз погоды в Кропоткине
  • Монитор погоды в Кропоткине

АРХИВ ПОГОДЫ в Кропоткине

Время (UTC), дата Ветер
(напр.,м/с)
 
Видим.   Явления Облачность Т
(С)
Тd
(С)
f
(%)
Тe
(С)
Тes
(С)
Комфортность P
(гПа)
Po
(гПа)
Тmin
(С)
Tmax
(С)
R
(мм)
R24
(мм)
S
(см)
15 15.09 С 2 20 км ясно +24.2 +4.9 29 +24 +24 комфорт 1018.7 1006.4 +28.9
18 15.09 С 2 20 км ясно +19.1 +5.9 42 +20 +20 1020.5 1008.0
21 15.09 С 1 20 км ясно +15.7 +6.1 53 +17 +17 1020.4 1007.7
00 16.09 В 1 20 км ясно +14.0 +6.1 59 +14 +14 1020.0 1007.3
03 16.09 ЮВ 1 20 км 3/0
[Ci fib]
+13.0 +6.7 66 +13 +13 1019.4 1006.6 +12.7
06 16.09 ЮВ 2 20 км ясно +19.8 +7.0 43 +21 +26 комфорт 1017.7 1005.3
09 16.09 В 1 20 км ясно +26.5 +5.8 27 +26 +39 жарко 1015.6 1003.4
12 16.09 Ю 1 20 км ясно +28.2 +5.2 23 +27 +35 жарко 1013.0 1000.9
15 16.09 З 1 20 км ясно +24.9 +5.3 28 +24 +25 комфорт 1012.3 1000.2 +29.0
18 16.09 З 1 20 км ясно +18.2 +6.0 45 +19 +19 1013.3 1000.8
21 16.09 СЗ 1 20 км ясно +16.7 +2.1 37 +18 +18 1013.4 1000.9
00 17.09 штиль 0 20 км 10/8 600 м
[Sc Ac cast]
+13.8 +4.0 52 +14 +14 1013.7 1001.0
03 17.09 ЮВ 1 20 км 3/0
[Ac cast]
+10.2 +5.9 75 +10 +10 1013.9 1001.1 +10.2
06 17.09 Ю 2 20 км ясно +19.0 +7.6 48 +20 +25 1013.1 1000.7 +9.9
09 17.09 ЮЗ 3 20 км ясно +26.0 +3.1 23 +25 +34 комфорт 1011.3 999.2
12 17.09 З 2 20 км ясно +27.3 +3.3 21 +26 +32 жарко 1010.1 998.0
15 17.09 ЮЗ 2 20 км 4/0
[Ac lent Ci]
+23.3 +0.7 22 +22 +22 комфорт 1010.0 997.8 +27.3
18 17.09 ЮЗ 3 20 км ясно +20.0 +8.8 48 +21 +21 комфорт 1012.1 999.7
21 17.09 ЮЗ 3 20 км 6/0
[Ac lent]
+18.8 +10.7 59 +20 +20 1012.1 999.7
00 18.09 ЮЗ 2 20 км 10/3 600 м
[Sc Ac und]
+18.2 +10.7 62 +19 +19 1011.7 999.3
03 18.09 ЮЗ 3 20 км 10/4 600 м
[Sc Ac lent Ci fib]
+19.0 +9.6 54 +20 +20 1011.3 998.9 +18.1
06 18.09 ЮЗ 4-11
{11}
20 км 5/4 600 м
[Cb cap Ac cuf]
+23.1 +11.2 47 +25 +27 комфорт 1012.0 999.7
09 18.09 ЮЗ 4-11
{15}
20 км 3/3 600 м
[Cu med, cong Ac cuf]
+28.0 +9.4 31 +28 +33 жарко 1010.9 998.8
12 18.09 ЮЗ 4-12
{15}
20 км 8/0
[Ac cast]
+28.5 +7.6 27 +28 +30 жарко 1009.5 997.5
15 18.09 ЮЗ 3
{14}
20 км 8/0
[Ac cast Cc]
+25.8 +5.1 26 +25 +25 комфорт 1009.0 996.9 +29.1
18 18.09 СЗ 5-13
{14}
20 км 10/6 600 м
[Cb cap Ac cuf]
+20.7 +9.9 50 +22 +22 комфорт 1013.1 1000.8
21 18.09 З 2
{13}
20 км {ливн. осадки} 10/8 600 м
[Cb cap Ac cuf]
+17.6 +11.8 69 +18 +18 1014.9 1002.5
00 19.09 З 1
{11}
20 км {ливн. осадки} 10/8 600 м
[Cb cap Ac cuf]
+15.2 +6.9 58 +16 +16 1017.1 1004.5
03 19.09 Ю 1 20 км в посл. час ливневой дождь 10/8 600 м
[Cb cap Ac cuf Ci fib]
+11.5 +8.9 84 +11 +11 1019.3 1006.5 +11.5 0.3
06 19.09 З 1 20 км {ливн. осадки} 8/0
[Ac cast]
+15.9 +5.5 50 +17 +19 1020.4 1007.7
09 19.09 ЮЗ 2 20 км 3/0
[Ac lent Cc]
+20.5 +3.4 32 +22 +31 комфорт 1019.9 1007.5
12 19.09 СЗ 2 20 км 8/0
[Ac cast Ci]
+21.4 +2.1 28 +21 +25 комфорт 1019.6 1007.2
15 19.09 СЗ 1 20 км 10/8 600 м
[Cb cap Ac cuf]
+17.6 +3.8 40 +19 +19 1020.1 1007.5 +22.6
18 19.09 З 1 20 км в посл. час ливневой дождь 10/8 600 м
[Cb cap Ac cuf]
+14.3 +8.2 67 +15 +15 1020.4 1007.7
21 19.09 СЗ 1 20 км в посл. час ливневой дождь 10/10 600 м
[Cb cap]
+12.5 +10.2 86 +12 +12 1020.4 1007.6
00 20.09 штиль 0 10 км слаб. ливневой дождь 10/10 300 м
[Cb cap]
+11.5 +10.0 90 +11 +11 1020.2 1007.3
03 20.09 СЗ 1 10 км {ливн. осадки} 10/8 600 м
[Cb cap Ac cuf]
+11.5 +10.3 92 +11 +11 1019.6 1006.7 +11.3 2
06 20.09 СВ 2 20 км {ливн. осадки} 10/8 600 м
[Sc Ac und]
+13.8 +8.9 72 +13 +14 1018.4 1005.7
09 20.09 С 2 20 км 10/8 600 м
[Cb cap Ac lent]
+15.7 +6.4 54 +16 +16 1016.5 1003.9
12 20.09 С 4 20 км в посл. час ливневой дождь 10/10 600 м
[Cb cap]
+13.5 +6.3 62 +12 +12 1014.8 1002.1
15 20.09 С 5
{11}
10 км слаб. ливневой дождь 10/10 300 м
[Cb cap]
+10.2 +7.1 81 +7 +7 1015.5 1002.7 +16.1 1
18 20.09 С 3 20 км {ливн. осадки} 10/10 600 м
[Cb cap]
+9.1 +7.5 90 +7 +7 1017.1 1004.2
21 20.09 С 2 10 км слаб. ливневой дождь 10/10 600 м
[Cb cap]
+8.4 +7.0 91 +6 +6 1016.8 1003.9
00 21.09 З 1 20 км {ливн. осадки} 8/8 600 м
[Sc]
+8.4 +7.2 92 +8 +8 1016.7 1003.8
03 21.09 ЮЗ 1 20 км 10/10 600 м
[Cb cap]
+7.7 +6.5 92 +7 +7 1017.1 1004.1 +7.6 12
06 21.09 ЮЗ 1 20 км 10/10 600 м
[Sc]
+9.1 +7.3 88 +8 +8 1018.2 1005.3
09 21.09 ЮЗ 3 20 км 8/8 600 м
[Cb cap]
+13.2 +7.5 68 +12 +14 1018.1 1005.3
12 21.09 З 3 20 км 4/4 600 м
[Cb cap]
+16.2 +4.1 44 +16 +19 1017.5 1004.9
15 21.09 З 1 20 км 4/3 600 м
[Cb cap Ac cuf]
+13.2 +3.8 53 +14 +14 1018.3 1005.6 +16.5
18 21.09 З 1 20 км в посл. час ливневой дождь 6/6 600 м
[Cb cap]
+8.0 +5.6 85 +7 +7 1020.8 1007.8
21 21.09 ЮЗ 1 20 км 4/0
[Ac cuf]
+7.5 +4.8 83 +7 +7 1021.5 1008.5
00 22.09 ЮЗ 2 20 км ясно +6.2 +4.4 88 +4 +4 1021.9 1008.8
03 22.09 ЮЗ 2 20 км ясно +5.6 +4.1 90 +3 +3 1022.7 1009.6 +5.6 0.5
06 22.09 ЮЗ 3 20 км 10/0
[Ac cuf Ci fib]
+10.9 +5.8 71 +9 +11 1022.4 1009.5 +5.5
09 22.09 З 4-10
{11}
20 км 10/3 600 м
[Cu med, cong Ci fib]
+16.9 +2.4 38 +16 +20 1020.7 1008.1
12 22.09 З 4
{13}
20 км {ливн. осадки} 10/9 600 м
[Cb cap Ci fib]
+17.7 +1.7 34 +17 +18 1019.0 1006.4

 

Местоположение метеостанции Кропоткин (Краснодарский край, Россия): широта 45.43 долгота 40.57 высота над уровнем моря 106 м.

В архиве по умолчанию представлена погода в Кропоткине за последнюю неделю. Архивные данные за месяц целиком и за предыдущие месяцы, начиная с января 2011 года, Вы можете получить, выбрав интересующий диапазон дат из раскрывающегося списка и нажав кнопку "Ввод!".


*Определитесь, кто Вы:
робот инопланетянин человек

Внимание! Время в таблицах - всемирное. Для получения местного времени необходимо прибавить поправку, которая равна 3 ч.

Смотрите также архив погоды в соседних городах и на ближайших метеорологических станциях:

Погода в Новоалександровске (Ставропольский край, Россия) (50 км)
Погода в Тихорецке (Краснодарский край, Россия) (60 км)
Погода в Дондуковской (Адыгея, Россия) (66 км)
Погода в Армавире (Краснодарский край, Россия) (66 км)
Погода в Усть-Лабинске (Краснодарский край, Россия) (69 км)
Погода в Белой Глине (Краснодарский край, Россия) (76 км)
Погода в Красногвардейском (Ставропольский край, Россия) (84 км)
Погода в Кореновске (Краснодарский край, Россия) (85 км)
Погода в Лабинске (Краснодарский край, Россия) (86 км)
Погода в Даховской (Адыгея, Россия) (86 км)

Пояснения к столбцам:

Ветер - указаны скорость ветра в м/с - средняя за 10 мин, порывы в срок и между сроками (в фигурных скобках) и направление, откуда дует ветер: С - северный, СВ - северо-восточный, В - восточный, ЮВ - юго-восточный, Ю - южный, ЮЗ - юго-западный, З - западный, СЗ - северо-западный.
Видимость - горизонтальная дальность видимости в метрах или километрах. При видимости от 1 до 10 км при отсутствии осадков обычно наблюдается дымка, при ухудшении видимости до 1 км и менее - туман. В сухую погоду видимость может ухудшаться дымом, пылью или мглою.
Явления - указаны атмосферные явления, наблюдавшиеся в срок или в последний час перед сроком; фигурными скобками обозначены явления, наблюдавшиеся между сроками (за 1-3 часа до срока); квадратными скобками обозначены град или гололедные отложения с указанием их диаметра в мм.
Облачность - указаны через наклонную черту общая и нижняя облачность в баллах и высота нижней границы облаков в метрах; квадратными скобками обозначены формы облаков: Ci - перистые, Cs - перисто-слоистые, Cc - перисто-кучевые, Ac - высококучевые, As - высокослоистые, Sc - слоисто-кучевые, Ns - слоисто-дождевые, Cu - кучевые, Cb - кучево-дождевые. Подробнее классификацию облаков см. в Атласе облаков (PDF).
T - Температура воздуха - температура, измеренная на высоте 2 м над землей.
Td - Температура точки росы - температура, при понижении до которой содержащийся в воздухе водяной пар достигнет насыщения.
f - Относительная влажность воздуха - влажноcть воздуха, измеренная на высоте 2 м над землей.
Te - Эффективная температура - температура, которую ощущает одетый по сезону человек в тени. Характеристика душности погоды. При расчете учитывается влияние влажности воздуха и скорости ветра на теплоощущения человека.
Tes - Эффективная температура на солнце - температура, которую ощущает человек, с поправкой на солнечный нагрев. Характеристика знойности погоды. Зависит от высоты солнца над горизонтом, облачности и скорости ветра. Ночью, в пасмурную погоду, а также при ветре 12 м/с и более поправка равна нулю.
P - Атмосферное давление - приведенное к уровню моря атмосферное давление.
Po - Атмосферное давление - измеренное на уровне метеостанции атмосферное давление.
Tmin - Минимальная температура - минимум температуры воздуха на высоте 2 м над землей.
Tmax - Максимальная температура - максимум температуры воздуха на высоте 2 м над землей.
R - Количество осадков - Количество выпавших осадков за период времени, мм. При наведении курсора мыши на число - период времени, за который выпало указанное количество осадков.
R24 - Количество осадков - Количество выпавших осадков за 24 часа, мм.
S - Снежный покров - Высота снежного покрова, см. При наведении курсора мыши на число - состояние снежного покрова и степень покрытия местности в баллах.